Regional Weather Roundup
Issued by NWS Northern Indiana

Home | Current Version | Previous Version | Graphics & Text | Print | Product List | Glossary On
Versions: 1 2 3 4 5 6 7 8 9 10 11 12 13 14 15 16 17 18 19 20 21 22 23 24 25 26 27 28 29 30 31 32 33 34 35 36 37 38 39 40 41 42 43 44 45 46 47 48 49 50
000
ASUS43 KIWX 181710
RWRIWX

KIWX WEATHER ROUNDUP
NATIONAL WEATHER SERVICE NORTHERN INDIANA
100 PM EDT FRI APR 18 2014

NOTE: "FAIR" INDICATES FEW OR NO CLOUDS BELOW 12,000 FEET WITH NO
SIGNIFICANT WEATHER AND/OR OBSTRUCTIONS TO VISIBILITY.

* THESE STATIONS ARE NOT UNDER NWS QUALITY CONTROL. THEY ALSO MAY NOT
  REPORT WEATHER SUCH AS PRECIPITATION OR FOG.

INZ001>027-181800-
NORTHERN INDIANA

CITY           SKY/WX    TMP DP  RH WIND       PRES   REMARKS
GARY*          SUNNY     45  36  70 N12G23    30.38R
VALPARAISO     SUNNY     52  37  56 N13       30.34R
MICHIGAN CITY* SUNNY     43  34  70 NW8       30.36R
LAPORTE*       SUNNY     53  38  56 NW10      30.33S
SOUTH BEND     SUNNY     59  38  45 NW9       30.32R
ELKHART*       SUNNY     59  37  44 CALM      30.30
GOSHEN         SUNNY     61  43  51 NW5       30.29S
MONTICELLO*    SUNNY     62  42  49 NW9       30.30S
LOGANSPORT*    SUNNY     63  39  42 SW8       30.30F
ROCHESTER*     SUNNY     64  39  39 W7        30.30S
WARSAW*        MOSUNNY   63  41  45 W10       30.29S
ANGOLA*        PTSUNNY   61  45  55 NW6       30.28S
FORT WAYNE     MOSUNNY   65  39  38 SW8       30.28F
HUNTINGTON*    FAIR      64  41  43 SW8       30.28S
PERU/GRISSOM   SUNNY     64  43  46 W8        30.29S
MARION*        MOSUNNY   64  36  36 W8        30.29S

$$
INZ028>050-181800-
CENTRAL INDIANA

CITY           SKY/WX    TMP DP  RH WIND       PRES   REMARKS
LAFAYETTE      SUNNY     63  40  42 NW8       30.30S
KOKOMO*        SUNNY     64  43  45 NW5       30.28F
MUNCIE*        SUNNY     65  39  38 VRB5G16   30.27F
INDIANAPOLIS   MOSUNNY   66  39  37 W7        30.28F

$$
MIZ043>046-050>051-056>058-064>065-071>073-077>080-181800-
SOUTHWEST LOWER MICHIGAN

CITY           SKY/WX    TMP DP  RH WIND       PRES   REMARKS
BATTLE CREEK   MOSUNNY   58  38  47 MISG      30.29S
BENTON HARBOR  SUNNY     43  36  76 N7        30.34R
COLDWATER*     MOSUNNY   58  38  47 W9        30.28S
HILLSDALE*     PTSUNNY   59  41  49 W12       30.27S
HOLLAND        MOSUNNY   55  40  56 W10       30.33R
GRAND RAPIDS   PTSUNNY   57  38  48 NW14      30.30R
KALAMAZOO      MOSUNNY   60  36  40 CALM      30.29S
STURGIS*       MOSUNNY   59  41  51 CALM      30.28S
THREE RIVERS*  FAIR      61  37  40 W7        30.29S

$$
OHZ001>008-015>018-024>025-181800-
NORTHWEST OHIO

CITY           SKY/WX    TMP DP  RH WIND       PRES   REMARKS
WAUSEON*       PTSUNNY   63  41  45 W12G20    30.27F
DEFIANCE       PTSUNNY   64  39  39 W10G21    30.27F
FINDLAY        MOSUNNY   65  41  41 W6        30.26F
TOLEDO EXPRESS CLOUDY    61  40  45 W9        30.27S
TOLEDO METCALF PTSUNNY   63  39  41 W9        30.27F
LIMA           SUNNY     64  39  39 SE3       30.27F

$$
&&



USA.gov is the U.S. government's official web portal to all federal, state and local government web resources and services.